FW7071 Weather Reports


Display with metric or nautical units.
time (UTC)temp
F
wind
direction
speed
MPH
gust
MPH
rain 1hr
in
rain 24hr
in
rain mn
in
humidity
%
barometer
mb
20260901184021 86 271 3.0 3.0 0.00 0.01 0.01 80 1016.5
20260901183515 86 258 3.0 3.0 0.00 0.01 0.01 81 1016.4
20260901183011 86 225 3.0 3.0 0.00 0.01 0.01 81 1016.5
20260901182506 86 216 0.0 1.0 0.00 0.01 0.01 81 1016.7
20260901182001 86 223 0.0 0.0 0.00 0.01 0.01 83 1016.5
20260901181501 86 226 2.0 2.0 0.00 0.01 0.01 82 1016.5
20260901181000 85 242 0.0 1.0 0.00 0.01 0.01 82 1016.5
20260901180458 85 208 0.0 1.0 0.00 0.01 0.01 83 1016.7
20260901175956 84 241 1.0 2.0 0.00 0.01 0.01 83 1016.7
20260901175452 84 214 1.0 1.0 0.00 0.01 0.01 85 1016.9
20260901174947 84 216 1.0 2.0 0.00 0.01 0.01 84 1016.7
20260901174443 84 177 1.0 2.0 0.00 0.01 0.01 84 1016.8
20260901173939 84 218 2.0 3.0 0.00 0.01 0.01 84 1016.7
20260901173433 84 215 2.0 2.0 0.00 0.01 0.01 83 1016.5
20260901172930 84 177 1.0 2.0 0.00 0.01 0.01 84 1016.7
20260901172425 84 195 2.0 3.0 0.00 0.01 0.01 85 1016.5
20260901171923 84 160 0.0 0.0 0.00 0.01 0.01 86 1016.8
20260901171421 84 221 3.0 3.0 0.00 0.01 0.01 86 1016.7
20260901170920 84 217 1.0 1.0 0.00 0.01 0.01 86 1016.9
20260901170415 83 187 0.0 0.0 0.00 0.01 0.01 86 1016.9
20260901165910 82 190 0.0 0.0 0.00 0.01 0.01 87 1016.7
20260901165410 82 153 0.0 1.0 0.00 0.01 0.01 89 1017.2
20260901164906 82 219 3.0 3.0 0.00 0.01 0.01 89 1017.1
20260901164406 81 250 3.0 3.0 0.00 0.01 0.01 89 1017.3
20260901163901 81 200 0.0 1.0 0.00 0.01 0.01 90 1017.2
20260901163356 81 191 0.0 0.0 0.00 0.01 0.01 91 1017.5
20260901162851 81 231 2.0 5.0 0.00 0.01 0.01 91 1017.3
20260901162350 80 180 1.0 2.0 0.00 0.01 0.01 92 1017.4
20260901161850 80 175 1.0 1.0 0.00 0.01 0.01 94 1017.6
20260901161349 79 200 1.0 1.0 0.00 0.01 0.01 95 1017.7
20260901160844 78 197 0.0 0.0 0.00 0.01 0.01 96 1017.7
20260901160341 78 196 0.0 1.0 0.00 0.01 0.01 97 1017.8
20260901155840 78 188 0.0 1.0 0.00 0.01 0.01 97 1017.9
20260901155335 78 227 0.0 0.0 0.00 0.01 0.01 97 1017.7
20260901154832 78 249 2.0 2.0 0.00 0.01 0.01 96 1018.0
20260901154330 78 201 0.0 0.0 0.00 0.01 0.01 96 1017.8
20260901153825 78 210 0.0 1.0 0.00 0.01 0.01 96 1017.9
20260901153320 78 242 2.0 2.0 0.00 0.01 0.01 96 1017.8
20260901152819 78 265 1.0 1.0 0.00 0.01 0.01 97 1017.9
20260901152318 77 205 0.0 0.0 0.00 0.01 0.01 97 1017.9
20260901151813 77 199 0.0 0.0 0.00 0.01 0.01 97 1017.6
20260901151308 77 225 1.0 1.0 0.00 0.01 0.01 97 1017.8
20260901150807 77 231 1.0 2.0 0.00 0.01 0.01 97 1017.9
20260901150305 77 258 1.0 2.0 0.00 0.01 0.01 97 1018.2
20260901145803 77 232 0.0 0.0 0.00 0.01 0.01 97 1018.0
20260901145257 77 227 1.0 1.0 0.00 0.01 0.01 96 1018.0
20260901144753 77 221 0.0 0.0 0.00 0.01 0.01 97 1017.8
20260901144248 77 241 2.0 2.0 0.00 0.01 0.01 96 1017.8
20260901143738 77 313 3.0 3.0 0.00 0.01 0.01 96 1017.7
20260901143234 77 272 5.0 6.0 0.00 0.01 0.01 96 1017.7
20260901142731 77 231 3.0 3.0 0.00 0.01 0.01 96 1017.6
20260901142229 77 289 3.0 5.0 0.00 0.01 0.01 95 1017.9
20260901141725 77 239 2.0 3.0 0.00 0.01 0.01 95 1017.5
20260901141225 76 212 4.0 6.0 0.00 0.01 0.01 97 1017.7
20260901140724 76 222 5.0 6.0 0.00 0.01 0.01 97 1017.8
20260901140222 77 250 2.0 2.0 0.00 0.01 0.01 97 1017.5
20260901135717 76 244 5.0 6.0 0.00 0.01 0.01 97 1017.6
20260901135212 76 251 4.0 6.0 0.00 0.01 0.01 97 1017.7
20260901134708 76 289 5.0 6.0 0.00 0.01 0.01 97 1017.6
20260901134203 76 343 5.0 6.0 0.00 0.01 0.01 98 1017.9
20260901133702 75 254 4.0 6.0 0.00 0.01 0.01 99 1018.0
20260901133201 75 299 4.0 5.0 0.00 0.01 0.01 99 1017.9
20260901132700 74 233 3.0 3.0 0.00 0.01 0.01 99 1018.3
20260901132155 74 204 0.0 1.0 0.00 0.01 0.01 99 1018.0
20260901131649 74 82 0.0 1.0 0.00 0.01 0.01 99 1018.1
20260901131149 73 307 3.0 3.0 0.00 0.01 0.01 99 1018.0
20260901130644 73 264 1.0 1.0 0.00 0.01 0.01 99 1018.0
20260901130143 73 186 0.0 0.0 0.00 0.01 0.01 99 1017.8
20260901125641 72 232 0.0 1.0 0.00 0.01 0.01 99 1018.2
20260901125136 72 222 1.0 1.0 0.00 0.01 0.01 99 1018.2
20260901124631 72 291 2.0 2.0 0.00 0.01 0.01 99 1018.2
20260901124126 73 230 0.0 0.0 0.00 0.01 0.01 99 1018.5
20260901123625 73 221 0.0 0.0 0.00 0.01 0.01 99 1018.1
20260901123120 73 233 0.0 1.0 0.00 0.01 0.01 99 1018.1
20260901122618 73 218 0.0 0.0 0.00 0.01 0.01 99 1018.0
20260901122118 73 216 0.0 0.0 0.00 0.01 0.01 99 1018.2
20260901121613 72 212 0.0 1.0 0.00 0.01 0.01 99 1018.1
20260901121109 72 236 1.0 1.0 0.00 0.01 0.01 99 1018.1
20260901120603 72 205 0.0 0.0 0.00 0.01 0.01 99 1018.2
20260901120058 72 213 0.0 1.0 0.00 0.01 0.01 99 1017.9
20260901115553 72 304 0.0 0.0 0.00 0.01 0.01 99 1017.7
20260901115050 71 203 1.0 1.0 0.00 0.01 0.01 99 1017.6
20260901114546 71 215 0.0 1.0 0.00 0.01 0.01 99 1017.9
20260901114045 71 226 1.0 2.0 0.00 0.01 0.01 99 1017.8
20260901113543 71 198 0.0 0.0 0.00 0.01 0.01 99 1018.1
20260901113040 70 197 0.0 0.0 0.00 0.01 0.01 99 1018.0
20260901112539 70 205 0.0 0.0 0.00 0.01 0.01 99 1018.1
20260901112034 70 205 0.0 0.0 0.00 0.01 0.01 99 1018.1
20260901111533 70 205 0.0 0.0 0.00 0.01 0.01 99 1018.0
20260901111031 71 218 0.0 0.0 0.00 0.01 0.01 99 1018.1
20260901110527 71 230 0.0 0.0 0.00 0.01 0.01 99 1018.0
20260901110023 70 214 0.0 0.0 0.00 0.01 0.01 99 1018.1
20260901105520 70 214 0.0 0.0 0.00 0.01 0.01 99 1018.0
20260901105018 71 212 0.0 0.0 0.00 0.01 0.01 99 1018.1
20260901104515 70 214 0.0 0.0 0.00 0.01 0.01 99 1017.9
20260901104010 70 211 0.0 0.0 0.00 0.01 0.01 99 1017.9
20260901103504 70 210 0.0 0.0 0.00 0.01 0.01 99 1018.1
20260901103000 70 214 0.0 0.0 0.00 0.01 0.01 99 1018.1
20260901102454 70 218 0.0 0.0 0.00 0.01 0.01 99 1018.1
20260901101948 70 210 0.0 0.0 0.00 0.01 0.01 99 1018.1
20260901101444 70 210 0.0 0.0 0.00 0.01 0.01 99 1018.1
20260901100943 70 207 0.0 0.0 0.00 0.01 0.01 99 1018.1
20260901100438 70 207 0.0 0.0 0.00 0.01 0.01 99 1018.3
20260901095938 70 205 0.0 0.0 0.00 0.01 0.01 99 1018.1
20260901095437 70 201 0.0 0.0 0.00 0.01 0.01 99 1018.1
20260901094929 70 201 0.0 0.0 0.00 0.01 0.01 99 1018.0
20260901094430 70 201 0.0 0.0 0.00 0.01 0.01 99 1018.3
20260901093929 70 201 0.0 0.0 0.00 0.01 0.01 99 1018.2
20260901093424 70 201 0.0 0.0 0.00 0.01 0.01 99 1018.2
20260901092919 70 201 0.0 0.0 0.00 0.01 0.01 99 1018.3
20260901092415 70 201 0.0 0.0 0.00 0.01 0.01 99 1018.1
20260901091910 70 201 0.0 0.0 0.00 0.01 0.01 99 1018.1
20260901091409 70 201 0.0 0.0 0.00 0.01 0.01 99 1018.3
20260901090900 70 201 0.0 0.0 0.00 0.01 0.01 99 1018.1
20260901090359 70 201 0.0 0.0 0.00 0.01 0.01 99 1018.0
20260901085856 70 201 0.0 0.0 0.00 0.01 0.01 99 1018.0
20260901085351 71 201 0.0 0.0 0.00 0.01 0.01 99 1018.1
20260901084848 70 201 0.0 0.0 0.00 0.01 0.01 99 1018.2
20260901084343 70 201 0.0 0.0 0.00 0.01 0.01 99 1018.2
20260901083833 70 201 0.0 0.0 0.00 0.01 0.01 99 1018.3
20260901083332 70 201 0.0 0.0 0.00 0.01 0.01 99 1018.3
20260901082831 70 199 0.0 0.0 0.00 0.01 0.01 99 1018.3
20260901082326 70 199 0.0 0.0 0.00 0.01 0.01 99 1018.4
20260901081821 70 200 0.0 0.0 0.00 0.01 0.01 99 1018.3
20260901081316 70 196 0.0 0.0 0.00 0.01 0.01 99 1018.1
20260901080811 70 197 0.0 0.0 0.00 0.01 0.01 99 1018.6
20260901080311 70 185 0.0 0.0 0.00 0.01 0.01 99 1018.4
20260901075804 70 174 0.0 0.0 0.00 0.01 0.01 99 1018.4
20260901075300 70 174 0.0 0.0 0.00 0.01 0.01 99 1018.3
20260901074754 70 176 0.0 0.0 0.00 0.01 0.01 99 1018.3
20260901074249 70 176 0.0 0.0 0.00 0.01 0.01 99 1018.6
20260901073745 70 176 0.0 0.0 0.00 0.01 0.01 99 1018.4
20260901073240 70 176 0.0 0.0 0.00 0.01 0.01 99 1018.2
20260901072735 70 176 0.0 0.0 0.00 0.01 0.01 99 1018.3
20260901072231 70 176 0.0 0.0 0.00 0.01 0.01 99 1018.2
20260901071730 70 176 0.0 0.0 0.00 0.01 0.01 99 1018.2
20260901071225 70 176 0.0 0.0 0.00 0.01 0.01 99 1018.3
20260901070724 70 176 0.0 0.0 0.00 0.01 0.01 99 1018.4
20260901070219 70 176 0.0 0.0 0.00 0.01 0.01 99 1018.5
20260901065719 70 176 0.0 0.0 0.00 0.01 0.01 99 1018.6
20260901065214 70 184 0.0 0.0 0.00 0.01 0.01 99 1018.6
20260901064710 70 184 0.0 0.0 0.00 0.01 0.01 99 1018.6
20260901064206 70 184 0.0 0.0 0.00 0.01 0.01 99 1018.6
20260901063703 70 196 0.0 0.0 0.00 0.01 0.01 99 1018.6
20260901063159 70 196 0.0 0.0 0.00 0.01 0.01 99 1018.5
20260901062654 70 196 0.0 0.0 0.00 0.01 0.01 99 1018.6
20260901062150 70 196 0.0 0.0 0.00 0.01 0.01 99 1018.8
20260901061646 70 196 0.0 0.0 0.00 0.01 0.01 99 1018.7
20260901061145 70 196 0.0 0.0 0.00 0.01 0.01 99 1018.8
20260901060640 70 196 0.0 0.0 0.00 0.01 0.01 99 1018.8
20260901060136 70 198 0.0 0.0 0.00 0.01 0.01 99 1018.9
20260901055631 70 208 0.0 0.0 0.00 0.01 0.01 99 1018.9
20260901055128 70 221 0.0 0.0 0.00 0.01 0.01 99 1019.2
20260901054625 70 262 0.0 0.0 0.00 0.01 0.01 99 1019.1
20260901054120 70 199 0.0 0.0 0.00 0.01 0.01 99 1019.0
20260901053616 70 199 0.0 0.0 0.00 0.01 0.01 99 1019.0
20260901053112 70 199 0.0 0.0 0.00 0.01 0.01 99 1019.1
20260901052612 70 206 0.0 0.0 0.00 0.01 0.01 99 1019.2
20260901052108 71 246 0.0 0.0 0.00 0.01 0.01 99 1019.2
20260901051607 71 234 2.0 2.0 0.00 0.01 0.01 99 1019.1
20260901051106 71 262 1.0 1.0 0.00 0.01 0.01 99 1019.2
20260901050601 71 201 2.0 2.0 0.00 0.01 0.01 99 1019.1
20260901050056 71 211 2.0 3.0 0.00 0.01 0.01 99 1019.2
20260901045551 71 227 1.0 1.0 0.00 0.01 0.01 99 1019.2
20260901045046 71 242 1.0 1.0 0.00 0.01 0.01 99 1019.3
20260901044542 70 212 2.0 2.0 0.00 0.01 0.01 99 1019.3
20260901044038 70 225 3.0 3.0 0.00 0.01 0.01 99 1019.5
20260901043533 70 202 0.0 1.0 0.00 0.01 0.01 99 1019.2
20260901043029 70 219 0.0 0.0 0.00 0.01 0.01 99 1019.6
20260901042528 70 222 0.0 0.0 0.00 0.01 0.01 99 1019.5
20260901042024 70 165 0.0 0.0 0.00 0.01 0.01 99 1019.6
20260901041519 70 144 1.0 1.0 0.07 0.01 0.01 99 1019.7
20260901041014 70 179 0.0 0.0 0.07 0.01 0.01 99 1019.6
20260901040508 70 132 1.0 1.0 0.05 0.00 0.00 99 1019.6
20260901040007 70 156 0.0 0.0 0.05 0.04 0.04 99 1019.8
20260901035506 70 177 0.0 0.0 0.00 0.03 0.03 99 1020.0
20260901035004 70 287 0.0 1.0 0.00 0.03 0.03 99 1020.0
20260901034504 70 234 0.0 1.0 0.00 0.03 0.03 99 1020.1
20260901033959 70 225 0.0 0.0 0.00 0.03 0.03 99 1020.0
20260901033458 70 225 0.0 0.0 0.00 0.03 0.03 99 1020.0
20260901032957 70 266 1.0 1.0 0.00 0.03 0.03 99 1020.2
20260901032451 70 209 0.0 0.0 0.00 0.03 0.03 99 1019.9
20260901031946 70 178 0.0 0.0 0.00 0.03 0.03 99 1020.1
20260901031442 70 225 0.0 0.0 0.00 0.03 0.03 99 1020.0
20260901030942 70 261 1.0 1.0 0.00 0.03 0.03 99 1020.1
20260901030438 70 272 0.0 0.0 0.00 0.03 0.03 99 1020.0
20260901025936 70 252 0.0 1.0 0.00 0.03 0.03 99 1020.2
20260901025432 71 196 0.0 0.0 0.00 0.03 0.03 99 1020.0
20260901024931 71 196 0.0 0.0 0.00 0.03 0.03 99 1020.3
20260901024426 70 196 0.0 0.0 0.00 0.03 0.03 99 1020.1
20260901023924 70 161 0.0 0.0 0.00 0.03 0.03 99 1019.9
20260901023419 70 161 0.0 0.0 0.00 0.03 0.03 99 1020.1
20260901022914 70 161 0.0 0.0 0.00 0.03 0.03 99 1020.3
20260901022410 70 161 0.0 0.0 0.00 0.03 0.03 99 1020.2
20260901021905 70 161 0.0 0.0 0.00 0.03 0.03 99 1020.1
20260901021401 70 161 0.0 0.0 0.00 0.03 0.03 99 1020.3
20260901020855 70 161 0.0 0.0 0.00 0.03 0.03 99 1020.2
20260901020351 70 161 0.0 0.0 0.00 0.03 0.03 99 1020.0
20260901015850 70 161 0.0 0.0 0.00 0.03 0.03 99 1020.1
20260901015347 70 164 0.0 0.0 0.00 0.03 0.03 99 1020.3
20260901014845 70 170 0.0 0.0 0.00 0.03 0.03 99 1020.1
20260901014342 70 170 0.0 0.0 0.00 0.03 0.03 99 1020.1
20260901013837 70 187 0.0 0.0 0.00 0.03 0.03 99 1020.1
20260901013333 70 188 0.0 0.0 0.00 0.03 0.03 99 1020.0
20260901012828 70 122 0.0 0.0 0.00 0.03 0.03 99 1019.9
20260901012323 70 151 0.0 0.0 0.00 0.03 0.03 99 1019.9
20260901011819 70 151 0.0 0.0 0.00 0.03 0.03 99 1020.1
20260901011314 70 150 0.0 0.0 0.00 0.03 0.03 99 1020.3
20260901010807 70 150 0.0 0.0 0.00 0.03 0.03 99 1020.1
20260901010302 70 150 0.0 0.0 0.00 0.03 0.03 99 1020.1
20260901005801 70 150 0.0 0.0 0.00 0.03 0.03 99 1020.2
20260901005257 70 150 0.0 0.0 0.00 0.03 0.03 99 1020.0
20260901004756 70 150 0.0 0.0 0.00 0.03 0.03 99 1020.2
20260901004251 70 150 0.0 0.0 0.00 0.03 0.03 99 1020.0
20260901003750 70 150 0.0 0.0 0.00 0.03 0.03 99 1020.0
20260901003245 70 150 0.0 0.0 0.00 0.03 0.03 99 1020.1
20260901002744 70 150 0.0 0.0 0.00 0.03 0.03 99 1020.0
20260901002240 71 150 0.0 0.0 0.00 0.03 0.03 99 1020.1
20260901001735 71 149 0.0 0.0 0.00 0.03 0.03 99 1019.8
20260901001230 71 149 0.0 0.0 0.00 0.03 0.03 99 1020.0
20260901000725 71 149 0.0 0.0 0.00 0.03 0.03 99 1020.0
20260901000220 71 149 0.0 0.0 0.00 0.03 0.03 99 1020.1
20260831235714 71 149 0.0 0.0 0.00 0.03 0.03 99 1019.9
20260831235209 71 149 0.0 0.0 0.00 0.03 0.03 99 1020.0
20260831234709 72 149 0.0 0.0 0.00 0.03 0.03 99 1019.8
20260831234204 72 149 0.0 0.0 0.00 0.03 0.03 98 1019.7
20260831233659 72 148 0.0 1.0 0.00 0.03 0.03 98 1019.6
20260831233154 73 148 0.0 0.0 0.00 0.03 0.03 98 1019.6
20260831232649 73 148 0.0 0.0 0.00 0.03 0.03 97 1019.7
20260831232145 73 143 0.0 0.0 0.00 0.03 0.03 96 1019.8
20260831231641 74 143 0.0 0.0 0.00 0.03 0.03 96 1019.8
20260831231137 74 143 0.0 0.0 0.00 0.03 0.03 95 1019.7
20260831230632 74 143 0.0 0.0 0.00 0.03 0.03 94 1019.9
20260831230128 74 143 0.0 0.0 0.00 0.03 0.03 94 1020.0
20260831225627 74 143 0.0 0.0 0.00 0.03 0.03 93 1020.1
20260831225123 75 141 0.0 0.0 0.00 0.03 0.03 93 1020.1
20260831224618 75 141 0.0 0.0 0.00 0.03 0.03 93 1020.2
20260831224113 75 140 0.0 0.0 0.00 0.03 0.03 93 1020.2
20260831223608 75 117 1.0 1.0 0.00 0.03 0.03 92 1020.1
20260831223104 75 136 1.0 1.0 0.00 0.03 0.03 91 1020.2
20260831222600 76 132 1.0 1.0 0.00 0.03 0.03 90 1020.4
20260831222054 76 184 0.0 1.0 0.00 0.03 0.03 91 1020.4
20260831221550 76 202 1.0 1.0 0.00 0.03 0.03 90 1020.2
20260831221050 76 240 0.0 0.0 0.00 0.03 0.03 90 1020.6
20260831220545 76 168 0.0 0.0 0.00 0.03 0.03 89 1020.2
20260831220041 76 173 1.0 1.0 0.00 0.03 0.03 87 1020.4
20260831215536 76 236 0.0 0.0 0.00 0.03 0.03 89 1020.4
20260831215032 75 163 0.0 1.0 0.00 0.03 0.03 90 1020.6
20260831214529 75 174 0.0 0.0 0.00 0.03 0.03 89 1020.5
20260831214025 76 176 0.0 0.0 0.00 0.03 0.03 88 1020.5
20260831213521 75 232 0.0 0.0 0.00 0.03 0.03 89 1020.5
20260831213016 76 174 0.0 0.0 0.00 0.03 0.03 90 1020.7
20260831212512 75 174 0.0 0.0 0.00 0.03 0.03 91 1020.5
20260831212007 75 252 0.0 0.0 0.00 0.03 0.03 89 1020.8
20260831211502 75 179 0.0 1.0 0.00 0.03 0.03 89 1020.8
20260831211001 75 267 1.0 1.0 0.00 0.03 0.03 88 1020.9
20260831210456 76 222 0.0 0.0 0.00 0.03 0.03 88 1020.9
20260831205952 76 207 0.0 0.0 0.00 0.03 0.03 88 1020.9
20260831205447 74 248 0.0 0.0 0.00 0.03 0.03 89 1020.9
20260831204943 74 208 0.0 0.0 0.00 0.03 0.03 93 1021.0
20260831204442 74 142 0.0 0.0 0.00 0.03 0.03 95 1021.2
20260831203936 74 137 0.0 0.0 0.00 0.03 0.03 96 1020.9
20260831203430 74 140 1.0 1.0 0.00 0.03 0.03 96 1020.8
20260831202928 74 180 0.0 0.0 0.00 0.03 0.03 96 1021.1
20260831202424 74 166 0.0 0.0 0.00 0.03 0.03 96 1021.2
20260831201918 74 172 0.0 0.0 0.00 0.03 0.03 96 1021.2
20260831201416 74 142 0.0 0.0 0.00 0.03 0.03 96 1021.2
20260831200912 74 142 0.0 0.0 0.07 0.03 0.03 96 1021.2
20260831200407 75 143 0.0 0.0 0.07 0.03 0.03 96 1021.4
20260831195902 75 142 0.0 0.0 0.00 0.02 0.02 95 1021.3
20260831195357 74 140 0.0 0.0 0.00 0.02 0.02 95 1021.3
20260831194853 73 140 0.0 0.0 0.00 0.02 0.02 94 1021.4
20260831194348 74 141 0.0 0.0 0.00 0.02 0.02 96 1021.4
20260831193847 75 140 0.0 0.0 0.05 0.02 0.02 95 1021.5
20260831193342 74 135 0.0 0.0 0.00 0.01 0.01 94 1021.5
20260831192838 75 133 0.0 0.0 0.00 0.01 0.01 93 1021.3
20260831192337 75 116 1.0 1.0 0.00 0.01 0.01 92 1021.6
20260831191828 76 138 0.0 0.0 0.00 0.01 0.01 91 1021.7
20260831191324 76 154 0.0 0.0 0.07 0.01 0.01 89 1021.7
20260831190819 76 170 0.0 0.0 0.07 0.01 0.01 87 1021.9
20260831190314 76 220 0.0 0.0 0.00 0.00 0.00 85 1022.1
20260831185813 76 270 1.0 1.0 0.00 0.00 0.00 84 1021.9
20260831185309 76 170 0.0 0.0 0.00 0.00 0.00 84 1021.8
20260831184808 77 164 0.0 0.0 0.00 0.00 0.00 84 1021.9